User: anonymous   Login
Location: Dürabuch
(48.2640°N, 11.2185°E)
Time: 22:03:41
(UTC+00:00)
Language:

Sep Motor Cover - Orbit

View from above orbital plane
View from above orbital plane
View from above satellite
View from above satellite

Ground track
Ground track

The orbit data is extracted from the following two-line orbital elements,

1 18417U 87027D   25322.33374369  .00000209  00000-0  22927-3 0  9993
2 18417  71.0011  37.4074 0203108 217.7656 207.6878 13.74609263938544
Epoch (UTC): 18 November 2025 08:00:35
Eccentricity: 0.0203108
inclination: 71.0011°
perigee height: 833 km
apogee height: 1132 km
right ascension of ascending node: 37.4074°
argument of perigee: 217.7656°
revolutions per day: 13.74609263
mean anomaly at epoch: 207.6878°
orbit number at epoch: 93854

The dashed part of the orbit path shows where the satellite is in the earth's shadow,  

DLR